Location: Harburg
(48.7667°N, 10.6667°E)
Time: 05:08:20
(UTC+00:00)

Cosmos 2285 Rocket - Pass Details

Date: 18 September 2020
Orbit: 970 x 1000 km, 74.0° (Epoch: 22 October)

Event Time Altitude Azimuth Distance (km) Brightness Sun altitude
Rises 19:32:31 0° 190° (S) 3,651 6.8 -21.2°
Reaches altitude 10° 19:35:03 10° 187° (S) 2,710 6.1 -21.6°
Maximum altitude 19:41:15 64° 108° (ESE) 1,075 3.9 -22.5°
Drops below altitude 10° 19:47:31 10° 28° (NNE) 2,745 6.4 -23.4°
Sets 19:50:06 0° 26° (NNE) 3,702 7.1 -23.7°
